Regional Weather Roundup
Issued by NWS

Home | Current Version | Previous Version | Graphics & Text | Print | Product List | Glossary On
Versions: 1 2 3 4 5 6 7 8 9 10 11 12 13 14 15 16 17 18 19 20 21 22 23 24 25 26 27 28 29 30 31 32 33 34 35 36 37 38 39 40 41 42 43 44 45 46 47 48 49 50
000
ASUS43 KBIS 060110
RWRND

NORTH DAKOTA REGIONAL WEATHER ROUNDUP
NATIONAL WEATHER SERVICE BISMARCK ND
800 PM CDT THU MAY 05 2016

NOTE: "FAIR" INDICATES FEW OR NO CLOUDS BELOW 12,000 FEET WITH NO
SIGNIFICANT WEATHER AND/OR OBSTRUCTIONS TO VISIBILITY.


NDZ001>003-009>011-017-060200-
NORTHWEST NORTH DAKOTA

CITY           SKY/WX    TMP DP  RH WIND       PRES   REMARKS
WILLISTON      CLOUDY    85  42  22 SW9       29.73F
MINOT          PTCLDY    87  38  17 S7        29.72F
MINOT AFB      CLOUDY    85  41  20 SW6       29.71S
$$

NDZ018>021-031>035-040>046-060200-
SOUTHWEST NORTH DAKOTA

CITY           SKY/WX    TMP DP  RH WIND       PRES   REMARKS
BISMARCK       CLOUDY    82  42  24 SW6       29.77F
DICKINSON      CLOUDY    81  38  21 CALM      29.79S
GARRISON         N/A     77  42  28 S5        29.75F
HETTINGER ARPT PTCLDY    76  55  48 S5        29.83F
$$

NDZ004>008-012>016-024-026-027-054-060200-
NORTHEAST NORTH DAKOTA

CITY           SKY/WX    TMP DP  RH WIND       PRES   REMARKS
GRAND FORKS    PTCLDY    85  35  16 W9        29.71S
GRND FRKS AFB  CLEAR     86  36  16 SW9       29.72S
DEVILS LAKE    CLEAR     77  41  27 SW9       29.74F
$$

NDZ022-023-025-028>030-036>039-047>053-060200-
SOUTHEAST NORTH DAKOTA

CITY           SKY/WX    TMP DP  RH WIND       PRES   REMARKS
FARGO          CLEAR     84  38  19 SW13      29.75S
JAMESTOWN      CLEAR     83  40  21 SW10      29.76S
$$





USA.gov is the U.S. government's official web portal to all federal, state and local government web resources and services.